Regional Weather Roundup
Issued by NWS

Home | Current Version | Previous Version | Graphics & Text | Print | Product List | Glossary On
Versions: 1 2 3 4 5 6 7 8 9 10 11 12 13 14 15 16 17 18 19 20 21 22 23 24 25 26 27 28 29 30 31 32 33 34 35 36 37 38 39 40 41 42 43 44 45 46 47 48 49 50
000
ASUS43 KBIS 060201
RWRND

NORTH DAKOTA REGIONAL WEATHER ROUNDUP
NATIONAL WEATHER SERVICE BISMARCK ND
800 PM CST THU MAR 05 2015

NOTE: "FAIR" INDICATES FEW OR NO CLOUDS BELOW 12,000 FEET WITH NO
SIGNIFICANT WEATHER AND/OR OBSTRUCTIONS TO VISIBILITY.


NDZ001>003-009>011-017-060300-
NORTHWEST NORTH DAKOTA

CITY           SKY/WX    TMP DP  RH WIND       PRES   REMARKS
WILLISTON      CLOUDY    35  22  58 SW7       30.02R
MINOT          PTCLDY    27  13  55 SW14      29.96F WCI  16
MINOT AFB      PTCLDY    25  17  73 W15       29.96F WCI  12
$$

NDZ018>021-031>035-040>046-060300-
SOUTHWEST NORTH DAKOTA

CITY           SKY/WX    TMP DP  RH WIND       PRES   REMARKS
BISMARCK       CLEAR     28  12  51 SW5       30.06F
DICKINSON      CLEAR     24  10  55 W7        30.04R WCI  16
GARRISON         N/A     20  11  68 W6        30.01F WCI  12
HETTINGER ARPT CLEAR     19   8  62 NW8       30.08S WCI   9
$$

NDZ004>008-012>016-024-026-027-054-060300-
NORTHEAST NORTH DAKOTA

CITY           SKY/WX    TMP DP  RH WIND       PRES   REMARKS
GRAND FORKS    CLEAR     18  10  71 S15       30.07F WCI   4
GRND FRKS AFB  CLEAR     20  10  62 SW13      30.05F WCI   8
DEVILS LAKE    CLEAR     19  12  73 SW12      30.00F WCI   7
$$

NDZ022-023-025-028>030-036>039-047>053-060300-
SOUTHEAST NORTH DAKOTA

CITY           SKY/WX    TMP DP  RH WIND       PRES   REMARKS
FARGO          CLEAR     18   7  62 S15       30.15F WCI   4
JAMESTOWN      CLEAR     19  11  70 S10       30.05F WCI   7
$$




USA.gov is the U.S. government's official web portal to all federal, state and local government web resources and services.